Location: São Paulo
(23.5507°S, 46.6334°W)
Time: 13:13:18
(UTC-03:00)

Tiros 1 - Pass Details

Date: 19 February 2026
Orbit: 618 x 649 km, 48.4° (Epoch: 11 March)

Event Time Altitude Azimuth Distance (km) Brightness Sun altitude
Rises 17:40:00 0° 335° (NNW) 2,886 10.7 13.5°
Reaches altitude 10° 17:42:25 10° 343° (NNW) 1,991 9.8 13.0°
Maximum altitude 17:46:38 36° 50° (NE) 994 7.9 12.0°
Drops below altitude 10° 17:50:55 10° 117° (ESE) 2,029 9.3 11.0°
Sets 17:53:24 0° 125° (SE) 2,949 10.1 10.5°
